User: anonymous   Login
Location: Canyam�s
(41.5996°N, 2.4450°E)
Time: 01:00:53
(UTC+00:00)
Language:

First-Move - Orbit

View from above orbital plane
View from above orbital plane
View from above satellite
View from above satellite

Ground track
Ground track

The orbit data is extracted from the following two-line orbital elements,

1 39439U 13066Z   20297.43068648 +.00000538 +00000-0 +71554-4 0  9995
2 39439 097.5806 289.3055 0064075 216.2091 143.4778 14.82254174372835
Epoch (UTC): 23 October 2020 10:20:11
Eccentricity: 0.0064075
inclination: 97.5806°
perigee height: 577 km
apogee height: 667 km
right ascension of ascending node: 289.3055°
argument of perigee: 216.2091°
revolutions per day: 14.82254174
mean anomaly at epoch: 143.4778°
orbit number at epoch: 37283

The dashed part of the orbit path shows where the satellite is in the earth's shadow,  

DLR